WetterOnline ( https://www.wetteronline.ch )

Wetter aktuell Pinneberg

Aktuelles Wetter: Quickborn (17m)

6-stündlich | Neueste Meldungen
Ortszeit Temperatur Wetter
Do, 23.01. 1:00 4.9° C bedeckt
Mi, 22.01. 19:00 6.1° C bewölkt
Mi, 22.01. 13:00 7.1° C wolkig
Mi, 22.01. 7:00 5.2° C bedeckt
Mi, 22.01. 1:00 4.7° C bewölkt
Di, 21.01. 19:00 4.4° C bedeckt
Di, 21.01. 13:00 4.4° C bedeckt
Di, 21.01. 7:00 2.8° C bedeckt
Ortszeit Temperatur Wetter
Do, 23.01. 6:00 5.1° C bedeckt
Do, 23.01. 5:50 5.1° C Sprühregen
Do, 23.01. 5:40 5.0° C Sprühregen
Do, 23.01. 5:30 5.0° C bedeckt
Do, 23.01. 5:20 5.0° C bedeckt
Do, 23.01. 5:10 5.1° C bedeckt
Do, 23.01. 5:00 5.2° C bedeckt
Do, 23.01. 4:30 5.4° C bedeckt
Do, 23.01. 4:00 5.3° C bedeckt
Do, 23.01. 3:30 4.9° C bedeckt
Do, 23.01. 3:00 4.7° C bedeckt
Ortszeit Relative Feuchte Sichtweite
Do, 23.01. 1:00 93% 16 km
Mi, 22.01. 19:00 82% 35 km
Mi, 22.01. 13:00 79% 45 km
Mi, 22.01. 7:00 97% 2.1 km
Mi, 22.01. 1:00 95% 4.0 km
Di, 21.01. 19:00 87% 8 km
Di, 21.01. 13:00 86% 10 km
Di, 21.01. 7:00 93% 5.0 km
Ortszeit Relative Feuchte Sichtweite
Do, 23.01. 6:00 95% 9 km
Do, 23.01. 5:50 95% -
Do, 23.01. 5:40 95% -
Do, 23.01. 5:30 94% 10 km
Do, 23.01. 5:20 94% -
Do, 23.01. 5:10 94% -
Do, 23.01. 5:00 94% 11 km
Do, 23.01. 4:30 88% 21 km
Do, 23.01. 4:00 89% 22 km
Do, 23.01. 3:30 93% 22 km
Do, 23.01. 3:00 95% 23 km
Ortszeit Niederschlagsmenge Niederschlagsart
Do, 23.01. 1:00 0.0 l/m2 in 6 Std. -
Mi, 22.01. 19:00 0.3 l/m2 in 12 Std. -
Mi, 22.01. 13:00 0.3 l/m2 in 6 Std. Sprühregen
Mi, 22.01. 7:00 0.3 l/m2 in 12 Std. Sprühregen
Mi, 22.01. 1:00 0.1 l/m2 in 6 Std. Sprühregen
Di, 21.01. 19:00 0.1 l/m2 in 12 Std. -
Di, 21.01. 13:00 0.1 l/m2 in 6 Std. Sprühregen
Di, 21.01. 7:00 0.0 l/m2 in 12 Std. -
Ortszeit Niederschlagsmenge Niederschlagsart
Do, 23.01. 6:00 0.1 l/m2 in 1 Std. Regen
Do, 23.01. 5:50 keine Meldung -
Do, 23.01. 5:40 keine Meldung -
Do, 23.01. 5:30 0.0 l/m2 in 1 Std. -
Do, 23.01. 5:20 keine Meldung -
Do, 23.01. 5:10 keine Meldung -
Do, 23.01. 5:00 0.1 l/m2 in 1 Std. Sprühregen
Do, 23.01. 4:30 0.0 l/m2 in 1 Std. -
Do, 23.01. 4:00 0.0 l/m2 in 1 Std. -
Do, 23.01. 3:30 0.0 l/m2 in 1 Std. -
Do, 23.01. 3:00 0.0 l/m2 in 1 Std. -
Ortszeit Stärke Spitze Richtung
km/h Bft. km/h Grad Sektor
Do, 23.01. 1:00 6 1 15 330° NW
Mi, 22.01. 19:00 7 2 32 290° W
Mi, 22.01. 13:00 18 3 32 320° NW
Mi, 22.01. 7:00 18 3 36 270° W
Mi, 22.01. 1:00 11 2 25 250° W
Di, 21.01. 19:00 15 3 31 250° W
Di, 21.01. 13:00 18 3 36 260° W
Di, 21.01. 7:00 13 3 24 240° SW
Ortszeit Stärke Spitze Richtung
km/h Bft. km/h Grad Sektor
Do, 23.01. 6:00 7 2 11 230° SW
Do, 23.01. 5:50 7 2 - 230° SW
Do, 23.01. 5:40 7 2 - 230° SW
Do, 23.01. 5:30 7 2 11 220° SW
Do, 23.01. 5:20 7 2 - 220° SW
Do, 23.01. 5:10 6 1 - 230° SW
Do, 23.01. 5:00 7 2 14 250° W
Do, 23.01. 4:30 7 2 14 240° SW
Do, 23.01. 4:00 7 2 13 260° W
Do, 23.01. 3:30 6 1 9 220° SW
Do, 23.01. 3:00 0 0 4 - -
Ortszeit Untergrenze Bedeckung Gattung
total tief tief mittel hoch
Do, 23.01. 1:00 180 m 8/8 8/8 - - -
Mi, 22.01. 19:00 690 m 7/8 7/8 - - -
Mi, 22.01. 13:00 600 m 6/8 6/8 - - -
Mi, 22.01. 7:00 90 m 8/8 8/8 - - -
Mi, 22.01. 1:00 150 m 7/8 7/8 - - -
Di, 21.01. 19:00 60 m 8/8 8/8 - - -
Di, 21.01. 13:00 270 m 8/8 8/8 - - -
Di, 21.01. 7:00 30 m 8/8 8/8 - - -
Ortszeit Bedeckungsgrad in Achtel und Wolkenuntergrenze
Do, 23.01. 6:00 1(30m) 7(210m) 8(540m)
Do, 23.01. 5:50 1(30m) 7(210m) 8(540m)
Do, 23.01. 5:40 3(30m) 7(210m) 8(570m)
Do, 23.01. 5:30 7(30m) 8(570m) 8(570m)
Do, 23.01. 5:20 7(30m) 8(570m)
Do, 23.01. 5:10 7(30m) 8(540m)
Do, 23.01. 5:00 4(30m) 8(480m)
Do, 23.01. 4:30 1(60m) 8(510m)
Do, 23.01. 4:00 2(60m) 8(510m)
Do, 23.01. 3:30 2(60m) 3(300m) 8(480m)
Do, 23.01. 3:00 5(60m) 8(480m)
Ortszeit Luftdruck NN (hPa) Tendenz (hPa in 3 Std.)
Do, 23.01. 1:00 1035 + 0,7
Mi, 22.01. 19:00 1034 + 1,1
Mi, 22.01. 13:00 1033 + 0,4
Mi, 22.01. 7:00 1032 - 1,0
Mi, 22.01. 1:00 1035 - 1,0
Di, 21.01. 19:00 1037 - 0,6
Di, 21.01. 13:00 1039 - 0,4
Di, 21.01. 7:00 1040 - 0,7
Ortszeit Luftdruck NN (hPa) Tendenz (hPa in 3 Std.)
Do, 23.01. 6:00 1034 - 0,9
Do, 23.01. 5:50 1034 keine Meldung
Do, 23.01. 5:40 1034 keine Meldung
Do, 23.01. 5:30 1034 - 0,8
Do, 23.01. 5:20 1034 keine Meldung
Do, 23.01. 5:10 1034 keine Meldung
Do, 23.01. 5:00 1034 - 0,9
Do, 23.01. 4:30 1035 - 0,5
Do, 23.01. 4:00 1035 - 0,6
Do, 23.01. 3:30 1035 - 0,5
Do, 23.01. 3:00 1035 - 0,2
Ortszeit Schneehöhe (cm)
Do, 23.01. 1:00 0
Mi, 22.01. 19:00 0
Mi, 22.01. 13:00 0
Mi, 22.01. 7:00 0
Mi, 22.01. 1:00 0
Di, 21.01. 19:00 0
Di, 21.01. 13:00 0
Di, 21.01. 7:00 0
Ortszeit Schneehöhe (cm)
Do, 23.01. 6:00 0
Do, 23.01. 5:50 0
Do, 23.01. 5:40 0
Do, 23.01. 5:30 0
Do, 23.01. 5:20 0
Do, 23.01. 5:10 0
Do, 23.01. 5:00 0
Do, 23.01. 4:30 0
Do, 23.01. 4:00 0
Do, 23.01. 3:30 0
Do, 23.01. 3:00 0
Link zu dieser Seite / Seite empfehlen

Das Wetter in ...